Wolf Creek Pass, CO

9:15 PM MST on November 22, 2017 (GMT -0700)
Wolf Creek Pass

Weather History for KCPW - October, 2013

Change the Weather History Date:

Friday, October 18, 2013

  Actual Average (KALS) Record (KALS)
Temperature  
Mean Temperature 24 °F -  
Max Temperature 30 °F 61 °F 75 °F (2003)
Min Temperature 17 °F 22 °F 7 °F (1968)
Degree Days  
Heating Degree Days 42    
Moisture  
Dew Point 5 °F    
Average Humidity 47    
Maximum Humidity 63    
Minimum Humidity 26    
Precipitation  
Precipitation 0.00 in - - ()
Sea Level Pressure  
Sea Level Pressure 30.19 in    
Wind  
Wind Speed 11 mph (West)    
Max Wind Speed 26 mph    
Max Gust Speed 37 mph    
Visibility 10 miles    
Events      
Averages and records for this station are not official NWS values.
T = Trace of Precipitation, MM = Missing Value Source: NWS Daily Summary

Daily Weather History Graph

Daily Weather History Graph

Search for Another Location

Airport or City:

Trip Planner

Search our weather history database for the weather conditions in past years. The results will help you decide how hot, cold, wet, or windy it might be!

Date:

Astronomy

Oct. 18, 2013 Rise Set
Actual Time 7:18 AM MDT 6:25 PM MDT
Civil Twilight 6:51 AM MDT 6:51 PM MDT
Nautical Twilight 6:21 AM MDT 7:22 PM MDT
Astronomical Twilight 5:51 AM MDT 7:52 PM MDT
Moon 6:17 PM MDT (10/18) 6:56 AM MDT (10/18)
Length of Visible Light 12h 00m
Length of Day
11h 07m
Full, 100% of the Moon is Illuminated
Oct 18
Full
Oct 18
Full
Oct 26
Last Quarter
Nov 3
New
Nov 9
First Quarter

Hourly Weather History & Observations

Time (MDT) Temp. Windchill Dew Point Humidity Pressure Visibility Wind Dir Wind Speed Gust Speed Precip Events Conditions
12:06 AM 21.2 °F 10.9 °F 10.4 °F 63% 30.14 in 10.0 mi West 9.2 mph - N/A   Clear
12:26 AM 21.2 °F 10.9 °F 8.6 °F 58% 30.14 in 10.0 mi WSW 9.2 mph - N/A   Clear
12:46 AM 21.2 °F 9.5 °F 5.0 °F 50% 30.13 in 10.0 mi WSW 11.5 mph 16.1 mph N/A   Clear
1:06 AM 21.2 °F 9.5 °F 6.8 °F 54% 30.13 in 10.0 mi WSW 11.5 mph - N/A   Clear
1:26 AM 21.2 °F 9.5 °F 6.8 °F 54% 30.12 in 10.0 mi WSW 11.5 mph - N/A   Clear
1:46 AM 21.2 °F 11.7 °F 6.8 °F 54% 30.13 in 10.0 mi WSW 8.1 mph 19.6 mph N/A   Clear
2:06 AM 21.2 °F 10.1 °F 6.8 °F 54% 30.12 in 10.0 mi WSW 10.4 mph 17.3 mph N/A   Clear
2:26 AM 19.4 °F 7.9 °F 6.8 °F 58% 30.12 in 10.0 mi WSW 10.4 mph 18.4 mph N/A   Clear
2:46 AM 19.4 °F 6.6 °F 6.8 °F 58% 30.12 in 10.0 mi West 12.7 mph 17.3 mph N/A   Clear
3:06 AM 19.4 °F 5.0 °F 8.6 °F 63% 30.11 in 10.0 mi West 16.1 mph 19.6 mph N/A   Clear
3:26 AM 19.4 °F 6.6 °F 8.6 °F 63% 30.11 in 10.0 mi WSW 12.7 mph - N/A   Clear
3:46 AM 19.4 °F 11.5 °F 8.6 °F 63% 30.11 in 10.0 mi WSW 5.8 mph - N/A   Clear
4:06 AM 19.4 °F 11.5 °F 6.8 °F 58% 30.10 in 10.0 mi West 5.8 mph - N/A   Clear
4:26 AM 19.4 °F 10.4 °F 6.8 °F 58% 30.11 in 10.0 mi West 6.9 mph - N/A   Clear
4:46 AM 19.4 °F 7.9 °F 6.8 °F 58% 30.11 in 10.0 mi West 10.4 mph 20.7 mph N/A   Clear
5:06 AM 19.4 °F 7.9 °F 6.8 °F 58% 30.11 in 10.0 mi WSW 10.4 mph 17.3 mph N/A   Clear
5:26 AM 19.4 °F 7.9 °F 6.8 °F 58% 30.11 in 10.0 mi WSW 10.4 mph - N/A   Clear
5:46 AM 19.4 °F 7.9 °F 5.0 °F 54% 30.11 in 10.0 mi WSW 10.4 mph 18.4 mph N/A   Clear
6:06 AM 19.4 °F 6.6 °F 5.0 °F 54% 30.11 in 10.0 mi West 12.7 mph 20.7 mph N/A   Clear
6:26 AM 19.4 °F 7.9 °F 5.0 °F 54% 30.11 in 10.0 mi West 10.4 mph 17.3 mph N/A   Clear
6:46 AM 17.6 °F 4.3 °F 6.8 °F 63% 30.10 in 10.0 mi West 12.7 mph 21.9 mph N/A   Clear
7:06 AM 17.6 °F 3.7 °F 6.8 °F 63% 30.10 in 10.0 mi West 13.8 mph 18.4 mph N/A   Clear
7:26 AM 17.6 °F 5.7 °F 5.0 °F 58% 30.10 in 10.0 mi West 10.4 mph 21.9 mph N/A   Clear
7:46 AM 19.4 °F 9.5 °F 6.8 °F 58% 30.12 in 10.0 mi West 8.1 mph - N/A   Clear
8:06 AM 19.4 °F - 6.8 °F 58% 30.13 in 10.0 mi Calm Calm - N/A   Clear
8:26 AM 21.2 °F 16.4 °F 6.8 °F 54% 30.14 in 10.0 mi NNE 3.5 mph - N/A   Clear
8:46 AM 21.2 °F 10.9 °F 8.6 °F 58% 30.14 in 10.0 mi NE 9.2 mph - N/A   Clear
9:06 AM 21.2 °F 10.1 °F 8.6 °F 58% 30.15 in 10.0 mi NNE 10.4 mph 21.9 mph N/A   Clear
9:26 AM 21.2 °F 11.7 °F 8.6 °F 58% 30.16 in 10.0 mi North 8.1 mph - N/A   Clear
9:46 AM 21.2 °F 8.9 °F 8.6 °F 58% 30.16 in 10.0 mi NE 12.7 mph 23.0 mph N/A   Clear
10:06 AM 23.0 °F 11.7 °F 6.8 °F 50% 30.17 in 10.0 mi NNE 11.5 mph 17.3 mph N/A   Clear
10:26 AM 23.0 °F 6.3 °F 5.0 °F 46% 30.17 in 10.0 mi NE 26.5 mph 35.7 mph N/A   Clear
10:46 AM 23.0 °F 7.2 °F 3.2 °F 43% 30.17 in 10.0 mi NNE 23.0 mph 35.7 mph N/A   Clear
11:06 AM 21.2 °F 5.2 °F 5.0 °F 50% 30.18 in 10.0 mi NNE 21.9 mph 36.8 mph N/A   Clear
11:26 AM 23.0 °F 6.9 °F 6.8 °F 50% 30.18 in 10.0 mi NE 24.2 mph 32.2 mph N/A   Clear
11:46 AM 23.0 °F 7.2 °F 8.6 °F 54% 30.19 in 10.0 mi NE 23.0 mph 29.9 mph N/A   Clear
12:06 PM 23.0 °F 10.1 °F 5.0 °F 46% 30.19 in 10.0 mi NNE 15.0 mph 23.0 mph N/A   Clear
12:26 PM 23.0 °F 10.6 °F 5.0 °F 46% 30.20 in 10.0 mi NNE 13.8 mph 29.9 mph N/A   Clear
12:46 PM 24.8 °F 14.0 °F 3.2 °F 40% 30.20 in 10.0 mi NNE 11.5 mph 32.2 mph N/A   Clear
1:06 PM 24.8 °F 11.9 °F -0.4 °F 34% 30.20 in 10.0 mi NNE 16.1 mph 24.2 mph N/A   Clear
1:26 PM 26.6 °F 15.7 °F -0.4 °F 31% 30.20 in 10.0 mi North 12.7 mph 17.3 mph N/A   Clear
1:46 PM 26.6 °F 13.8 °F -2.2 °F 29% 30.20 in 10.0 mi NNE 17.3 mph 25.3 mph N/A   Clear
2:06 PM 26.6 °F 15.2 °F -2.2 °F 29% 30.20 in 10.0 mi North 13.8 mph 21.9 mph N/A   Clear
2:26 PM 26.6 °F 14.3 °F -4.0 °F 26% 30.20 in 10.0 mi NNE 16.1 mph - N/A   Clear
2:46 PM 28.4 °F 24.6 °F -2.2 °F 27% 30.22 in 10.0 mi North 3.5 mph 16.1 mph N/A   Clear
3:06 PM 30.2 °F 25.4 °F -0.4 °F 27% 30.22 in 10.0 mi North 4.6 mph - N/A   Clear
3:26 PM 30.2 °F 23.4 °F -0.4 °F 27% 30.22 in 10.0 mi West 6.9 mph - N/A   Clear
3:46 PM 30.2 °F 22.6 °F 1.4 °F 29% 30.23 in 10.0 mi West 8.1 mph 19.6 mph N/A   Clear
4:06 PM 28.4 °F - -0.4 °F 29% 30.24 in 10.0 mi Calm Calm - N/A   Clear
4:26 PM 30.2 °F 24.3 °F -0.4 °F 27% 30.24 in 10.0 mi West 5.8 mph 16.1 mph N/A   Clear
4:46 PM 30.2 °F 25.4 °F -0.4 °F 27% 30.24 in 10.0 mi WSW 4.6 mph - N/A   Clear
5:06 PM 30.2 °F 25.4 °F -0.4 °F 27% 30.24 in 10.0 mi SW 4.6 mph - N/A   Clear
5:26 PM 30.2 °F 22.6 °F 1.4 °F 29% 30.24 in 10.0 mi NW 8.1 mph 16.1 mph N/A   Clear
5:46 PM 28.4 °F 21.2 °F -0.4 °F 29% 30.25 in 10.0 mi West 6.9 mph - N/A   Clear
6:06 PM 28.4 °F 16.2 °F 1.4 °F 31% 30.25 in 10.0 mi WSW 17.3 mph - N/A   Clear
6:26 PM 28.4 °F 17.5 °F 1.4 °F 31% 30.26 in 10.0 mi WSW 13.8 mph - N/A   Clear
6:46 PM 26.6 °F 14.3 °F 8.6 °F 47% 30.27 in 10.0 mi SSW 16.1 mph - N/A   Clear
7:06 PM 26.6 °F 14.7 °F 10.4 °F 51% 30.27 in 10.0 mi WSW 15.0 mph 21.9 mph N/A   Clear
7:26 PM 24.8 °F 12.4 °F 10.4 °F 54% 30.27 in 10.0 mi SW 15.0 mph - N/A   Clear
7:46 PM 23.0 °F 9.6 °F 10.4 °F 59% 30.28 in 10.0 mi SW 16.1 mph 19.6 mph N/A   Clear
8:06 PM 23.0 °F 9.2 °F 8.6 °F 54% 30.29 in 10.0 mi SW 17.3 mph - N/A   Clear
8:26 PM 23.0 °F 8.7 °F 6.8 °F 50% 30.29 in 10.0 mi SW 18.4 mph - N/A   Clear
8:46 PM 23.0 °F 10.6 °F 6.8 °F 50% 30.29 in 10.0 mi SW 13.8 mph - N/A   Clear
9:06 PM 23.0 °F 10.1 °F 6.8 °F 50% 30.29 in 10.0 mi SW 15.0 mph - N/A   Clear
9:26 PM 23.0 °F 10.6 °F 6.8 °F 50% 30.30 in 10.0 mi SW 13.8 mph - N/A   Clear
9:46 PM 23.0 °F 13.9 °F 6.8 °F 50% 30.31 in 10.0 mi SW 8.1 mph - N/A   Clear
10:06 PM 21.2 °F 16.4 °F 6.8 °F 54% 30.32 in 10.0 mi WSW 3.5 mph - N/A   Clear
10:26 PM 21.2 °F 14.9 °F 6.8 °F 54% 30.32 in 10.0 mi SW 4.6 mph - N/A   Clear
10:46 PM 23.0 °F - 3.2 °F 43% 30.32 in 10.0 mi Calm Calm - N/A   Clear
11:06 PM 23.0 °F - 1.4 °F 39% 30.33 in 10.0 mi Calm Calm - N/A   Clear
11:26 PM 23.0 °F - 1.4 °F 39% 30.33 in 10.0 mi Calm Calm - N/A   Clear
11:46 PM 23.0 °F 13.1 °F -4.0 °F 31% 30.33 in 10.0 mi NW 9.2 mph - N/A   Clear